DB7GV-8 Weather Reports


time (UTC)temp
C
wind
direction
speed
KPH
gust
KPH
rain 1hr
cm
rain 24hr
cm
rain mn
cm
humidity
%
barometer
mb
20260506163403 11 0 0.0 0.0 0.00 0.00 0.00 72 1010.1
20260506161858 11 0 0.0 0.0 0.00 0.00 0.00 71 1010.3
20260506160353 12 0 0.0 0.0 0.00 0.00 0.00 71 1010.4
20260506153342 12 0 0.0 0.0 0.00 0.00 0.00 72 1010.4
20260506151837 12 0 0.0 0.0 0.00 0.00 0.00 74 1010.2
20260506150331 12 0 0.0 0.0 0.00 0.00 0.00 77 1010.1
20260506144825 12 0 0.0 0.0 0.00 0.00 0.00 77 1010.0
20260506143320 12 0 0.0 0.0 0.00 0.00 0.00 74 1010.0
20260506141815 12 0 0.0 0.0 0.00 0.00 0.00 74 1009.9
20260506140309 12 0 0.0 0.0 0.00 0.00 0.00 73 1009.9
20260506133258 13 0 0.0 0.0 0.00 0.00 0.00 72 1009.4
20260506131753 14 0 0.0 0.0 0.00 0.00 0.00 70 1009.2
20260506130248 15 0 0.0 0.0 0.00 0.00 0.00 65 1008.9
20260506124741 16 0 0.0 0.0 0.00 0.00 0.00 63 1008.5
20260506123237 16 0 0.0 0.0 0.00 0.00 0.00 63 1008.4
20260506121731 17 0 0.0 0.0 0.00 0.00 0.00 60 1008.1
20260506114720 18 0 0.0 0.0 0.00 0.00 0.00 60 1008.0
20260506113215 17 0 0.0 0.0 0.00 0.00 0.00 66 1008.0
20260506111710 17 0 0.0 0.0 0.00 0.00 0.00 66 1008.1
20260506110204 16 0 0.0 0.0 0.00 0.00 0.00 68 1008.2
20260506104658 17 0 0.0 0.0 0.00 0.00 0.00 68 1008.1
20260506103153 15 0 0.0 0.0 0.00 0.00 0.00 70 1008.2
20260506101648 15 0 0.0 0.0 0.00 0.00 0.00 70 1008.4
20260506094637 15 0 0.0 0.0 0.00 0.00 0.00 69 1008.4
20260506093131 15 0 0.0 0.0 0.00 0.00 0.00 70 1008.4
20260506090121 15 0 0.0 0.0 0.00 0.00 0.00 67 1008.5
20260506084615 16 0 0.0 0.0 0.00 0.00 0.00 64 1008.3
20260506083110 16 0 0.0 0.0 0.00 0.00 0.00 61 1008.2
20260506081605 17 0 0.0 0.0 0.00 0.00 0.00 56 1008.1
20260506073049 22 0 0.0 0.0 0.00 0.00 0.00 48 1008.4
20260506061521 10 0 0.0 0.0 0.00 0.00 0.00 89 1008.5
20260506044448 8 0 0.0 0.0 0.00 0.00 0.00 91 1008.8
20260506042943 8 0 0.0 0.0 0.00 0.00 0.00 91 1008.9
20260506041438 8 0 0.0 0.0 0.00 0.00 0.00 91 1009.0
20260506035933 8 0 0.0 0.0 0.00 0.00 0.00 91 1009.2
20260506034427 8 0 0.0 0.0 0.00 0.00 0.00 91 1009.3
20260506032922 8 0 0.0 0.0 0.00 0.00 0.00 91 1009.4
20260506031417 8 0 0.0 0.0 0.00 0.00 0.00 90 1009.3
20260506025916 8 0 0.0 0.0 0.00 0.00 0.00 90 1009.4
20260506024406 8 0 0.0 0.0 0.00 0.00 0.00 90 1009.7
20260506022900 8 0 0.0 0.0 0.00 0.00 0.00 90 1009.9
20260506021354 8 0 0.0 0.0 0.00 0.00 0.00 90 1009.9
20260506015849 8 0 0.0 0.0 0.00 0.00 0.00 90 1010.0
20260506014344 8 0 0.0 0.0 0.00 0.00 0.00 90 1010.1
20260506012838 8 0 0.0 0.0 0.00 0.00 0.00 90 1010.1
20260506011333 8 0 0.0 0.0 0.00 0.00 0.00 90 1010.2
20260506005828 8 0 0.0 0.0 0.00 0.00 0.00 90 1010.3
20260506004322 8 0 0.0 0.0 0.00 0.00 0.00 90 1010.6
20260506002817 8 0 0.0 0.0 0.00 0.00 0.00 90 1010.6
20260506001312 8 0 0.0 0.0 0.00 0.00 0.00 90 1010.6
20260505235805 8 0 0.0 0.0 0.00 0.00 0.00 90 1010.4
20260505234300 9 0 0.0 0.0 0.00 0.00 0.00 90 1010.6
20260505232755 10 0 0.0 0.0 0.00 0.00 0.00 90 1010.8
20260505231250 9 0 0.0 0.0 0.00 0.00 0.00 89 1010.9
20260505225744 9 0 0.0 0.0 0.00 0.00 0.00 89 1011.0
20260505224239 9 0 0.0 0.0 0.00 0.00 0.00 89 1011.0
20260505222734 9 0 0.0 0.0 0.00 0.00 0.00 90 1011.0
20260505221228 9 0 0.0 0.0 0.00 0.00 0.00 89 1011.0
20260505215722 10 0 0.0 0.0 0.00 0.00 0.00 89 1011.2
20260505214217 10 0 0.0 0.0 0.00 0.00 0.00 89 1011.3
20260505211207 10 0 0.0 0.0 0.00 0.00 0.00 89 1011.2
20260505205700 11 0 0.0 0.0 0.00 0.00 0.00 89 1011.4
20260505204155 11 0 0.0 0.0 0.00 0.00 0.00 89 1011.3
20260505202650 11 0 0.0 0.0 0.00 0.00 0.00 89 1011.2
20260505201145 12 0 0.0 0.0 0.00 0.00 0.00 89 1011.1
20260505195640 12 0 0.0 0.0 0.00 0.00 0.00 89 1010.9
20260505194134 12 0 0.0 0.0 0.00 0.00 0.00 88 1010.8
20260505192628 12 0 0.0 0.0 0.00 0.00 0.00 88 1010.5
20260505191122 12 0 0.0 0.0 0.00 0.00 0.00 88 1010.3
20260505185617 13 0 0.0 0.0 0.00 0.00 0.00 87 1010.5
20260505184112 13 0 0.0 0.0 0.00 0.00 0.00 87 1010.4
20260505182606 13 0 0.0 0.0 0.00 0.00 0.00 86 1010.3
20260505181101 13 0 0.0 0.0 0.00 0.00 0.00 86 1010.1
20260505175556 14 0 0.0 0.0 0.00 0.00 0.00 85 1009.9
20260505174051 14 0 0.0 0.0 0.00 0.00 0.00 84 1009.9
20260505172545 14 0 0.0 0.0 0.00 0.00 0.00 83 1009.9
20260505171040 15 0 0.0 0.0 0.00 0.00 0.00 81 1009.7
20260505165534 15 0 0.0 0.0 0.00 0.00 0.00 80 1010.1